Tracking 27079 objects as of 23-Mar-2023
HD Live streaming from Space Station
objects crossing your sky now

DEWASAT-1

Track DEWASAT-1 now!
10-day predictions


NORAD ID: 51067
Int'l Code: 2022-002CM
Perigee: 510.7 km
Apogee: 521.4 km
Inclination: 97.4 °
Period: 94.8 minutes
Semi major axis: 6887 km
RCS: Unknown
Launch date: January 13, 2022
Source: United Arab Emirates (UAE)
Launch site: AIR FORCE EASTERN TEST RANGE (AFETR)
Your satellite tracking list
Your tracking list is empty




NASA's NSSDC Master Catalog

Two Line Element Set (TLE):
1 51067U 22002CM  23082.16621714  .00017400  00000-0  83307-3 0  9994
2 51067  97.4460 149.2138 0007727 186.8674 173.2455 15.18990727 65616
Source of the keplerian elements: AFSPC